Location: B?dargowo
(53.3916°N, 14.4413°E)
Time: 10:19:10
(UTC+00:00)

Cosmos 909 Rocket - Pass Details

Date: 05 February 2023
Orbit: 989 x 2090 km, 65.9° (Epoch: 19 March)

Event Time Altitude Azimuth Distance (km) Brightness Sun altitude
Rises 18:41:56 0° 313° (NW) 4,435 8.2 -25.4°
Reaches altitude 10° 18:45:06 10° 317° (NW) 3,305 7.4 -25.8°
Maximum altitude 18:52:42 62° 38° (NE) 1,242 4.3 -27.0°
Enters shadow 18:53:26 58° 67° (ENE) 1,261 4.2 -27.1°
